Location: Peterborough
(44.3091°N, 78.3197°W)
Time: 04:55:42
(UTC-04:00)

Tiros 1 - All Passes

Search period start: 02 April 2023 00:00
Search period end: 12 April 2023 00:00
Orbit: 627 x 662 km, 48.4° (Epoch: 01 April)

Date Brightness Start Highest point End Pass type
(mag) Time Alt. Az. Time Alt. Az. Time Alt. Az.
02 Apr - 02:40:33 10° SSW 02:44:31 27° SE 02:48:32 10° E visible
02 Apr - 04:21:31 10° WSW 04:26:18 89° NNW 04:31:09 10° ENE visible
02 Apr - 06:04:05 10° W 06:08:47 52° N 06:13:29 10° ENE visible
02 Apr - 07:46:33 10° WNW 07:51:22 70° NNE 07:56:09 10° ESE daylight
02 Apr - 09:28:54 10° WNW 09:33:24 40° SW 09:37:51 10° SSE daylight
03 Apr - 01:26:38 10° SSE 01:28:08 11° SE 01:29:38 10° ESE night (unlit)
03 Apr - 03:04:51 10° SW 03:09:27 51° SSE 03:14:06 10° ENE visible
03 Apr - 04:46:51 10° W 04:51:36 63° NNW 04:56:22 10° ENE visible
03 Apr - 06:29:29 10° WNW 06:34:13 54° N 06:38:56 10° E daylight
03 Apr - 08:11:47 10° WNW 08:16:37 78° SSW 08:21:23 10° ESE daylight
03 Apr - 09:54:41 10° W 09:58:15 21° SW 10:01:47 10° S daylight
04 Apr - 01:49:01 10° SSW 01:52:50 24° SE 01:56:39 10° E visible
04 Apr - 03:29:47 10° WSW 03:34:33 86° SSE 03:39:23 10° ENE visible
04 Apr - 05:12:18 10° W 05:17:00 52° N 05:21:42 10° ENE visible
04 Apr - 06:54:48 10° WNW 06:59:36 67° NNE 07:04:22 10° E daylight
04 Apr - 08:37:06 10° WNW 08:41:40 44° SW 08:46:12 10° SE daylight
05 Apr - 02:13:11 10° SW 02:17:43 46° SE 02:22:18 10° ENE visible
05 Apr - 03:55:04 10° W 03:59:49 65° NNW 04:04:37 10° ENE visible
05 Apr - 05:37:43 10° WNW 05:42:25 53° N 05:47:08 10° E visible
05 Apr - 07:20:02 10° WNW 07:24:51 83° SSW 07:29:39 10° ESE daylight
05 Apr - 09:02:47 10° W 09:06:33 23° SW 09:10:17 10° S daylight
06 Apr - 00:57:31 10° S 01:01:08 22° SE 01:04:46 10° E night (unlit)
06 Apr - 02:38:02 10° WSW 02:42:47 81° SSE 02:47:36 10° ENE visible
06 Apr - 04:20:31 10° W 04:25:12 53° N 04:29:55 10° ENE visible
06 Apr - 06:03:01 10° WNW 06:07:48 64° NNE 06:12:34 10° E visible
06 Apr - 07:45:19 10° WNW 07:49:56 48° SSW 07:54:32 10° SE daylight
06 Apr - 09:30:09 10° WSW 09:31:13 11° SW 09:32:18 10° SW daylight
07 Apr - 01:21:32 10° SW 01:25:59 42° SE 01:30:29 10° ENE visible
07 Apr - 03:03:17 10° W 03:08:02 68° NNW 03:12:49 10° ENE visible
07 Apr - 04:45:56 10° WNW 04:50:37 52° N 04:55:19 10° E visible
07 Apr - 06:28:15 10° WNW 06:33:04 89° SSW 06:37:53 10° ESE daylight
07 Apr - 08:10:54 10° W 08:14:50 25° SW 08:18:45 10° SSE daylight
08 Apr - 00:06:02 10° S 00:09:25 20° SE 00:12:50 10° E night (unlit)
08 Apr - 01:46:17 10° WSW 01:51:01 76° SSE 01:55:48 10° ENE visible
08 Apr - 03:28:42 10° W 03:33:23 54° N 03:38:06 10° ENE visible
08 Apr - 05:11:15 10° WNW 05:16:00 62° NNE 05:20:45 10° E visible
08 Apr - 06:53:30 10° WNW 06:58:11 53° SSW 07:02:50 10° SE daylight
08 Apr - 08:37:39 10° WSW 08:39:32 12° SW 08:41:24 10° SSW daylight
09 Apr - 00:29:52 10° SSW 00:34:14 38° SE 00:38:39 10° ENE night (unlit)
09 Apr - 02:11:30 10° WSW 02:16:14 71° NNW 02:21:02 10° ENE visible
09 Apr - 03:54:07 10° WNW 03:58:47 52° N 04:03:29 10° E visible
09 Apr - 05:36:28 10° WNW 05:41:17 86° NNE 05:46:06 10° ESE visible
09 Apr - 07:19:01 10° W 07:23:06 28° SW 07:27:10 10° SSE daylight
09 Apr - 23:14:34 10° S 23:17:42 18° SE 23:20:51 10° E night (unlit)
10 Apr - 00:54:32 10° SW 00:59:14 70° SSE 01:04:00 10° ENE night (unlit)
10 Apr - 02:36:53 10° W 02:41:34 55° N 02:46:17 10° ENE visible
10 Apr - 04:19:26 10° WNW 04:24:11 60° NNE 04:28:56 10° E visible
10 Apr - 06:01:42 10° WNW 06:06:24 57° SSW 06:11:06 10° SE visible
10 Apr - 07:45:26 10° WSW 07:47:49 14° SW 07:50:12 10° SSW daylight
10 Apr - 23:38:13 10° SSW 23:42:28 35° SE 23:46:47 10° ENE night (unlit)
11 Apr - 01:19:41 10° WSW 01:24:25 75° NNW 01:29:13 10° ENE visible
11 Apr - 03:02:18 10° WNW 03:06:58 51° N 03:11:39 10° ENE visible
11 Apr - 04:44:40 10° WNW 04:49:28 82° NNE 04:54:17 10° ESE visible
11 Apr - 06:27:09 10° W 06:31:21 31° SW 06:35:32 10° SSE daylight
11 Apr - 22:23:10 10° S 22:25:59 16° SE 22:28:49 10° E night (unlit)
